Theta_e
315 319 323 327 328 330 331 332 332 333 332 331 329 328 326 329 330 330 330 329 329 328 329 328 328 328 326 326 327 327 325 324 323 314 313 311 313 317 316 316 315 314 311
312 313 317 322 325 327 329 331 332 333 332 331 330 330 329 331 331 331 330 330 329 329 328 329 328 328 326 326 326 325 323 323 321 314 312 309 310 313 314 315 313 313 312
314 316 315 317 322 324 327 329 330 332 333 332 331 330 330 330 328 329 328 328 328 328 329 328 328 328 327 325 325 325 324 320 322 320 315 306 306 313 314 310 311 311 311
314 315 317 316 319 324 327 329 330 331 332 333 330 328 326 324 328 329 329 329 328 327 327 327 327 327 327 325 326 325 325 324 319 319 317 316 316 310 310 314 310 309 308
310 310 312 316 317 323 326 328 329 330 331 332 332 330 328 330 330 330 330 329 329 328 327 327 327 326 327 326 325 325 324 325 323 321 320 319 318 314 310 308 314 310 308
310 311 313 314 314 318 323 326 326 327 329 330 331 330 328 328 329 329 328 328 328 328 327 327 327 326 326 325 325 326 325 324 324 323 323 319 315 314 312 308 310 311 312
310 310 311 312 312 313 317 322 324 324 327 328 329 330 331 329 328 329 329 327 327 326 326 326 325 326 326 325 325 325 324 324 324 323 323 322 320 321 317 312 310 309 302
308 308 310 312 313 313 315 319 320 322 324 326 327 329 330 330 330 330 330 328 328 327 327 326 326 326 325 325 325 325 324 324 325 323 323 321 321 321 318 314 312 308 297
308 307 309 310 311 312 313 315 318 320 322 324 326 327 329 329 329 329 330 329 329 327 327 327 325 326 326 325 324 324 323 323 322 321 320 319 319 319 318 316 314 310 305
305 306 307 308 309 311 312 313 317 319 321 323 325 325 327 328 329 329 328 328 328 328 325 326 325 325 325 325 324 323 321 319 318 318 317 317 317 317 316 313 311 305 307
302 303 304 306 306 307 306 309 313 317 320 322 323 325 326 326 327 327 327 327 327 326 325 324 324 324 324 324 322 319 318 316 317 317 315 314 315 314 308 302 300 299 299
299 302 303 303 304 304 303 304 311 315 319 322 322 324 324 325 325 325 326 326 325 326 324 323 322 322 322 322 320 318 317 316 315 315 312 312 305 305 302 299 300 299 299
300 301 302 302 301 302 302 304 306 312 317 319 320 321 322 322 323 323 324 324 323 323 322 321 320 319 320 319 318 318 317 314 314 310 307 306 304 301 299 297 296 295 295
305 303 301 302 301 301 301 301 305 309 312 316 317 318 318 319 321 321 321 321 320 320 319 318 317 317 317 317 315 312 308 305 303 302 302 301 300 300 298 295 295 294 294
304 305 303 303 303 301 300 300 300 303 307 310 313 311 313 314 314 314 313 311 311 311 311 308 306 305 304 302 303 302 301 300 298 297 297 296 293 291 295 294 294 293 291
304 304 301 300 300 301 300 300 299 299 300 303 307 308 304 300 301 299 297 297 296 299 297 296 297 297 296 295 296 298 298 297 297 296 294 293 291 293 292 293 292 293 291
303 305 306 306 302 302 301 299 299 300 299 300 298 298 295 296 298 297 297 297 297 296 296 296 295 293 293 294 294 293 298 297 297 295 293 291 291 290 293 292 292 291 292
302 304 305 306 306 303 301 301 299 298 299 298 296 295 295 293 292 293 294 294 295 295 294 293 292 291 291 293 292 291 295 294 293 293 292 292 291 291 289 291 290 289 290
304 305 307 307 307 304 300 298 297 296 296 295 295 294 295 292 291 291 292 292 291 290 290 289 289 290 290 292 291 290 290 289 289 290 291 291 290 289 290 289 287 287 288
304 304 306 307 305 305 300 296 295 294 294 294 294 294 293 290 290 291 290 289 290 288 288 287 288 287 289 291 291 290 290 287 288 288 287 286 289 288 290 286 286 284 286
303 304 305 304 304 303 297 295 295 294 296 294 292 291 291 289 291 289 288 288 287 287 286 285 285 286 287 290 290 289 289 288 288 287 286 287 289 289 290 288 285 285 286
301 303 302 302 303 300 295 295 294 296 293 292 290 289 288 288 288 287 287 287 286 285 284 284 284 285 286 288 290 289 289 289 286 286 287 287 288 289 289 288 288 289 286
297 299 299 298 300 294 294 294 295 292 289 288 287 286 286 286 287 286 286 287 286 286 284 284 284 283 284 287 290 290 289 288 287 287 287 286 286 286 286 286 286 285 287
292 293 292 292 292 291 290 293 292 289 287 287 286 285 285 285 286 288 288 287 286 285 284 284 283 282 283 284 286 288 288 286 287 286 286 286 285 285 284 284 285 285 285
289 291 290 290 291 290 289 289 287 287 287 286 285 285 285 285 284 285 286 286 286 287 285 284 284 283 283 284 285 286 286 286 286 285 285 285 285 284 284 285 285 286 286
287 287 288 288 289 287 287 285 286 287 286 285 284 284 284 284 284 283 282 283 283 284 285 285 285 283 286 286 285 286 286 286 286 284 284 284 283 283 282 282 281 282 280
Wind_Speed
17 12 13 15 16 16 18 19 19 19 14 12 11 11 10 11 10 10 13 14 13 13 12 9 10 9 9 9 10 9 9 7 4 3 4 5 8 9 9 9 9 11 10
15 14 15 15 18 19 20 21 21 19 16 13 12 10 11 11 11 10 12 14 14 14 12 13 11 11 9 11 11 10 7 7 7 4 2 3 5 10 11 9 10 12 9
22 21 19 19 18 20 22 21 21 22 20 19 12 10 8 7 9 11 11 13 16 15 15 15 13 12 11 10 12 11 12 8 8 11 4 2 5 2 5 10 10 11 10
24 22 21 19 19 21 18 21 21 22 20 21 16 17 14 13 12 12 11 12 16 16 16 16 15 14 10 12 10 10 11 11 10 5 10 9 6 4 6 6 8 9 10
21 23 22 20 18 15 17 19 21 21 21 20 20 16 17 13 11 11 14 15 14 17 17 16 15 14 10 12 13 13 13 11 11 10 7 10 10 9 8 8 10 5 8
17 18 17 15 16 14 15 16 19 21 22 21 23 23 21 18 13 14 12 11 11 11 15 15 14 14 13 14 13 14 15 13 13 11 11 10 7 7 8 8 10 11 6
11 13 13 13 14 16 17 16 19 20 21 22 22 22 22 21 20 17 13 13 11 10 12 15 14 12 14 14 13 13 13 14 13 14 11 11 11 10 9 8 10 8 1
12 13 13 12 12 13 14 16 18 20 20 21 22 19 22 13 14 16 12 11 11 11 14 14 15 15 15 14 13 10 11 12 11 16 13 10 11 10 9 9 8 8 4
12 13 14 13 13 12 14 16 17 18 19 20 18 19 18 19 16 18 15 12 13 11 13 13 13 14 14 14 14 10 12 11 11 11 11 10 9 8 7 7 7 8 8
11 12 11 13 12 13 12 12 15 18 17 18 17 15 17 17 16 14 16 16 13 13 12 13 13 13 13 13 13 10 10 9 8 7 9 9 8 9 7 7 7 5 7
8 11 12 11 13 11 8 10 11 14 14 16 16 16 15 16 16 14 14 14 13 13 14 13 13 13 12 12 11 10 9 8 9 9 10 11 10 7 4 2 2 2 3
8 10 11 12 11 10 6 7 9 12 13 13 15 15 16 15 14 15 15 13 14 13 13 12 12 12 12 11 12 10 9 10 10 10 9 9 2 3 3 3 4 3 4
9 9 9 11 11 8 8 8 9 11 11 12 14 14 14 13 15 15 15 13 12 12 11 11 11 11 10 9 10 10 9 9 8 4 4 3 4 3 2 2 2 2 2
19 11 9 9 9 8 8 9 10 8 9 11 12 13 13 13 13 11 11 11 10 10 9 8 8 7 7 8 6 5 4 4 4 4 3 3 3 4 3 3 3 3 3
19 20 16 11 10 10 9 9 8 6 5 8 9 10 6 6 6 7 5 3 4 3 4 5 4 4 4 3 5 5 5 5 5 4 4 4 3 5 2 1 1 2 2
17 16 11 11 10 10 10 8 8 7 6 7 8 7 5 4 4 5 5 5 5 5 5 6 6 6 3 7 9 7 6 5 5 5 5 5 4 4 4 4 3 4 5
21 22 23 19 14 12 11 12 9 7 7 6 5 5 6 6 6 6 6 6 6 5 5 5 6 6 5 9 10 9 7 7 6 6 6 5 4 5 5 6 5 8 11
22 25 22 20 15 12 9 9 9 9 8 7 7 7 8 7 6 6 6 5 5 7 6 6 6 6 4 8 11 10 8 6 6 6 5 6 6 6 6 6 5 4 3
20 21 21 21 17 10 10 10 9 9 9 10 9 10 10 10 10 10 9 6 7 6 5 5 6 6 4 9 11 8 6 6 6 5 5 5 4 5 6 4 3 2 1
16 17 19 18 14 13 11 11 12 12 14 13 14 12 12 11 11 11 11 7 8 8 7 6 5 4 5 9 10 8 5 6 5 5 5 6 5 5 7 4 4 3 1
22 19 18 17 18 12 11 14 13 18 16 11 10 10 11 11 11 11 6 9 9 8 7 7 5 3 4 8 11 11 5 6 6 5 5 3 7 8 10 7 3 3 4
22 21 15 18 18 9 12 15 17 17 12 13 12 11 10 9 9 11 10 10 10 10 9 8 7 4 4 8 11 11 9 11 7 6 6 5 8 7 8 5 5 4 6
17 17 18 20 18 9 14 15 19 11 12 12 12 11 11 9 10 13 13 11 11 10 9 8 7 7 4 3 11 14 14 12 6 6 12 14 11 9 7 5 6 3 1
18 14 17 18 18 9 11 18 6 10 12 13 13 12 12 11 9 7 8 9 9 9 10 9 8 7 6 6 6 5 8 11 7 12 8 9 9 7 6 4 4 2 2
19 16 15 18 17 7 11 7 8 13 13 10 10 11 10 12 10 7 7 7 6 8 10 9 9 10 9 7 10 9 8 7 8 8 6 5 6 5 5 3 2 1 1
20 20 17 15 14 6 7 6 9 13 14 14 11 10 9 9 9 9 7 6 7 8 10 14 10 3 10 16 15 15 15 15 17 5 5 6 5 5 4 3 2 1 1
Wind_Direction
242 231 222 221 223 221 217 214 209 209 205 204 204 209 211 213 216 217 217 216 215 215 217 222 222 217 222 224 224 224 231 228 203 182 229 246 245 239 236 234 240 236 233
242 229 224 217 216 217 216 215 215 207 204 206 208 208 208 220 217 215 216 218 215 215 217 221 221 217 221 225 225 220 225 240 188 200 231 256 221 235 236 235 240 242 234
244 244 230 223 220 217 216 214 214 212 206 208 202 207 218 216 216 220 216 216 215 213 214 219 220 218 219 225 222 221 222 232 211 216 210 221 238 344 197 232 238 236 235
240 245 244 232 219 220 216 217 214 214 213 205 204 204 205 209 218 218 219 217 212 214 214 219 220 221 218 225 225 221 224 226 236 197 229 245 265 255 283 217 239 244 246
248 247 245 249 238 225 216 216 217 213 214 209 210 209 217 221 222 222 224 219 214 218 216 218 219 222 222 226 225 219 223 225 236 230 230 230 240 240 251 269 271 205 231
250 251 253 253 246 235 225 222 219 218 212 210 211 213 216 220 217 218 221 222 221 218 222 222 224 224 224 224 226 228 227 225 231 240 234 234 224 221 234 248 256 262 249
258 263 259 246 242 232 224 221 219 223 216 214 214 216 216 215 220 219 218 222 219 217 218 214 217 219 223 225 226 228 231 227 231 235 239 240 243 247 246 247 258 268 171
272 269 271 264 248 237 232 227 222 225 218 217 217 215 218 218 218 220 217 219 217 215 216 213 218 222 226 229 230 230 231 231 233 240 241 243 245 241 241 240 258 267 245
288 279 278 263 250 242 232 225 228 231 226 219 219 219 218 218 217 218 220 219 222 220 217 214 217 224 226 227 226 228 233 228 233 236 240 240 244 246 244 241 237 242 274
308 302 295 291 279 263 250 233 230 231 227 221 218 217 217 219 220 220 220 219 222 221 215 217 219 221 223 224 225 227 229 221 224 226 230 234 235 235 230 227 229 215 243
316 313 309 303 288 274 252 251 236 233 229 225 219 215 213 215 217 218 219 220 220 215 216 217 219 222 224 223 219 218 222 215 228 226 227 233 232 233 210 153 121 179 183
325 317 317 318 306 295 283 265 239 227 228 225 221 218 216 213 214 216 217 215 217 215 217 217 218 221 222 220 217 212 208 216 221 228 219 232 199 187 152 171 206 214 210
308 327 336 324 315 299 288 272 255 237 223 219 218 218 217 211 214 217 220 215 216 218 217 216 218 218 218 212 209 213 214 210 218 207 171 167 177 193 171 195 201 203 213
326 323 315 312 298 282 269 271 271 251 235 221 213 214 212 213 216 216 214 212 211 212 210 204 204 206 206 215 210 194 154 120 116 116 121 138 178 205 195 197 203 200 224
298 303 306 300 297 288 270 261 254 257 237 232 228 224 205 195 190 188 178 151 161 161 139 126 109 102 103 108 125 133 133 127 123 118 121 83 44 23 351 106 171 164 225
294 291 272 266 266 267 257 251 251 236 213 217 222 202 176 149 147 127 128 128 131 126 121 122 129 118 103 117 117 130 128 129 138 140 129 123 114 108 130 181 159 185 197
289 281 273 268 255 237 230 230 224 209 211 206 178 169 155 159 156 149 144 141 139 129 130 128 129 121 124 139 133 129 141 148 158 160 149 138 141 168 162 180 175 200 204
269 271 274 278 270 251 224 225 189 200 208 200 177 167 170 166 155 152 153 145 142 146 141 139 136 132 150 157 150 145 141 138 145 152 158 155 163 180 163 174 182 195 204
266 273 278 280 278 246 218 208 192 186 185 200 202 180 177 170 168 168 164 152 143 140 149 148 145 143 162 164 150 142 138 142 140 122 139 142 154 152 170 131 154 175 201
284 283 276 277 272 258 208 198 204 193 207 196 197 189 174 174 176 169 161 156 153 145 143 134 139 151 154 162 163 156 145 126 128 118 121 108 107 131 153 146 166 162 171
291 284 275 267 260 251 196 213 206 212 204 190 180 183 175 173 169 159 151 147 145 137 134 127 128 149 148 153 157 156 149 152 139 143 128 111 113 131 152 145 165 166 150
299 298 280 271 268 232 197 222 214 215 190 173 172 175 168 161 156 156 150 149 148 143 142 140 146 164 172 165 156 149 149 147 142 146 124 108 119 139 152 150 180 186 150
306 309 294 283 281 220 209 224 228 185 169 166 171 168 162 162 165 162 161 157 157 155 156 162 164 166 169 157 158 157 144 141 138 128 117 114 116 117 112 115 86 95 111
300 304 297 278 274 238 222 232 184 169 165 173 167 163 164 160 164 170 170 165 168 164 166 164 162 157 164 167 161 152 151 149 135 124 116 133 130 128 125 127 125 127 135
302 299 292 283 275 260 235 225 174 166 164 165 166 170 166 166 159 164 171 175 179 184 171 169 161 160 169 178 167 165 162 157 143 131 145 148 143 146 147 148 125 114 151
301 298 290 275 278 246 234 206 177 178 169 162 165 173 166 161 156 148 141 125 146 163 153 151 152 136 137 148 154 155 152 150 149 154 156 143 140 144 148 141 140 110 24